Showing default

EGYPTSAT A, 44047

Orbit data source: Space-Track

EGYPTSAT A, 44047 is a payload satellite owned by EgSA (EG) in SSO that was launched on Thu, 21 Feb 2019 UTC via a SOYUZ-2-1B launch vehicle from the Tyuratam Missile And Space Complex (TTMTR). Payload-class satellites include a variety of spacecraft equipped with specific instruments for various scientific and technological missions. These include communications satellites like Starlink; space stations such as the ISS; scientific satellites like the Hubble; Earth observation satellites from companies like Planet Labs, Umbra, and HawkEye 360; GPS; miniature CubeSats for education and research; and military/defense satellites.

Loading next visibility...
Identifier
44047, 2019-008A
Orbit
SSO
Last TLE update
9 hours ago
Origin
Manufacturer
Yuzhnoe
Mission
Operational Civil Imaging
Bus & Motor
EGYPTSAT, Unknown motor
Mass
~1,050 kg wet, ~1,050 kg dry
Launch date (UTC)
2019-02-21 (6 years ago)
Launch vehicle
SOYUZ-2-1B
Launch site
Tyuratam Missile And Space Complex (TTMTR)
Object type
Payload
Rocket body
Debris
Shape & HBR
Box + 4 Pan + 1 Ant, 2 m
Radar Cross Section
0.867 m², Large (>1 m²)

Expand to show TLE details & history

TLE from 9 hours ago
0 EGYPTSAT A
1 44047U 19008A   25182.87078510  .00000456  00000-0  79799-4 0  9991
2 44047  98.0193 247.7399 0001976  92.7854 267.3580 14.72371438341694
Epoch: 2025-07-01T20:53Z
TLE epoch observation values (Epoch: 2025-07-01T20:53:55.832Z)
Latitude
0.00001°
Longitude
14.09724°
Altitude
656.58 km
Speed
7.529 km/s
True Right ascension
16h 30m 57s
True Declination
0° 00' 00"
Sunlit
Object was in full shadow at epoch
Visualization orbit readout
Latitude
63.51742°
Longitude
-149.21081°
Altitude
663.161 km
Speed
7.532 km/s
Apparent Right ascension
05h 24m 35s
Apparent Declination
15° 21' 53"
Sunlit
Object is in daylight
Visualization observer readout
Local Sidereal Time
17:16:09
Azimuth
357.527° N
Elevation
-34.684°
Doppler factor
1
Orbital elements
Apogee altitude
651.953 km
Perigee altitude
649.175 km
Semi-major axis
7,028.701 km
Eccentricity
0.0002
Inclination
98.0193°
RAAN
247.7399°
Arg. of periapsis
92.7854°
True anomaly
Unknown
Mean anomaly
267.358°
Eccentric anomaly
Unknown
Mean motion
3.68324 °/min
Orbital period
97.74 mins
BSTAR
0.000079799
Loading maneuver chart data...
Loading SW <> Apogee altitude chart data...
Loading historical data...
Loading historical data...
Loading historical data...
Loading historical data...
Loading historical data...
Loading historical data...
Loading historical data...
Other satellites on launch #8 in the year 2019 (2019-02-21 UTC)

EGYPTSAT A Visibility forecast

Observer location: undefined°, undefined°

Span
Click to sort rows by Start time (UTC) header in descending order
Start Az.
Max El. time (UTC)
Max El. Az.
Max El.
End time (UTC)
End Az.
8 mins2025-07-02 17:02:33.993Z19.697° NNE2025-07-02 17:06:33.993Z126.685° SE42.296°2025-07-02 17:10:33.993Z184.551° SSW
7 mins2025-07-03 04:01:33.993Z144.877° SSE2025-07-03 04:04:33.993Z68.545° E39.353°2025-07-03 04:08:33.993Z357.333° N
|